Speel Arm Station 4-4 AK US current weather conditions

sailwx.info

Wind from 097 at 0 knots gusting 1

Air temperature 9.6° C
Dewpoint 9.6° C

Last reported at 2020-Aug-12 05:00 UTC.
Time now 2020-Aug-12 05:58 UTC

Location: N 58°06' W 133°46'.
View on Google Maps.

See reports from other nearby stations

  
Tides and Currents Weather Stations Pressure Air Temp Water Temp Dewpoint Dewpoint Depression Visibility Wind Speed Wind Dir Waves Ship Positions
date/time (UTC)wind fromknots sea level pressurealtimeterstation pressurevisibilityair tempwater tempwave heightnotes
2020-Aug-12 05:00 097 0 gusting 1 9.6
2020-Aug-12 04:00 027 0 gusting 2 10.0
2020-Aug-12 03:00 063 0 gusting 2 10.4
2020-Aug-12 02:00 134 0 gusting 3 11.4
2020-Aug-12 01:00 102 1 gusting 5 11.4
2020-Aug-12 00:00 068 0 gusting 2 11.4
2020-Aug-11 23:00 113 1 gusting 4 11.4
2020-Aug-11 22:00 138 1 gusting 6 11.1
2020-Aug-11 21:00 161 1 gusting 6 11.2
2020-Aug-11 20:00 199 2 gusting 5 10.7
2020-Aug-11 19:00 158 1 gusting 4 10.2
2020-Aug-11 18:00 155 1 gusting 4 9.4
2020-Aug-11 17:00 132 0 gusting 3 8.9
2020-Aug-11 16:00 175 0 gusting 2 8.9
2020-Aug-11 15:00 221 1 gusting 2 9.0
2020-Aug-11 14:00 207 1 gusting 3 9.2
2020-Aug-11 13:00 193 0 gusting 3 9.0
2020-Aug-11 12:00 210 0 gusting 2 8.9
2020-Aug-11 11:00 202 0 gusting 3 8.5
2020-Aug-11 10:00 208 0 gusting 3 9.3
2020-Aug-11 09:00 224 1 gusting 3 9.4
2020-Aug-11 08:00 217 2 gusting 6 9.4
2020-Aug-11 07:00 213 2 gusting 6 9.4
2020-Aug-11 06:00 211 2 gusting 5 9.3
2020-Aug-11 05:00 212 3 gusting 7 9.4
2020-Aug-11 04:00 214 2 gusting 6 9.6
2020-Aug-11 03:00 209 2 gusting 6 9.8
2020-Aug-11 02:00 203 2 gusting 6 10.0
2020-Aug-11 01:00 196 2 gusting 6 9.9
2020-Aug-11 00:00 186 2 gusting 6 9.6
2020-Aug-10 23:00 169 1 gusting 6 9.6
2020-Aug-10 22:00 128 0 gusting 5 9.6
2020-Aug-10 21:00 167 1 gusting 8 9.4
2020-Aug-10 20:00 246 1 gusting 6 9.5
2020-Aug-10 19:00 186 1 gusting 6 9.3
2020-Aug-10 18:00 145 2 gusting 9 9.2
2020-Aug-10 17:00 175 2 gusting 9 9.5
2020-Aug-10 16:00 173 2 gusting 10 9.6
2020-Aug-10 15:00 156 2 gusting 11 9.9
2020-Aug-10 14:00 173 3 gusting 14 9.8
2020-Aug-10 13:00 074 1 gusting 6 9.7
2020-Aug-10 12:00 194 1 gusting 9 9.9
2020-Aug-10 11:00 168 3 gusting 12 10.2
2020-Aug-10 10:00 158 2 gusting 10 10.2
2020-Aug-10 09:00 205 3 gusting 12 10.3
2020-Aug-10 08:00 183 5 gusting 12 10.3
2020-Aug-10 07:00 185 4 gusting 11 10.7
2020-Aug-10 06:00 172 3 gusting 11 10.8
2020-Aug-10 05:00 171 3 gusting 11 10.8